Weather History for KPSX - November, 2011

Change the Weather History Date:

Tuesday, November 1, 2011

  Actual Average Record
Temperature  
Mean Temperature 64 °F -  
Max Temperature 79 °F 77 °F 88 °F (1978)
Min Temperature 51 °F 56 °F 36 °F (1949)
Growing Degree Days 14 (Base 50)    
Moisture  
Dew Point 58 °F    
Average Humidity 77    
Maximum Humidity 96    
Minimum Humidity 56    
Precipitation  
Precipitation 0.01 in - - ()
Sea Level Pressure  
Sea Level Pressure 30.11 in    
Wind  
Wind Speed 7 mph (ESE)    
Max Wind Speed 17 mph    
Max Gust Speed 18 mph    
Visibility 10 miles    
Events      
Averages and records for this station are not official NWS values.
T = Trace of Precipitation, MM = Missing Value Source: NWS Daily Summary

Daily Weather History Graph

Daily Weather History Graph

Search for Another Location

Airport or City:

Trip Planner

Search our weather history database for the weather conditions in past years. The results will help you decide how hot, cold, wet, or windy it might be!

Date:

Astronomy

Nov. 01, 2011 Rise Set
Actual Time 7:36 AM CDT 6:39 PM CDT
Civil Twilight 7:12 AM CDT 7:04 PM CDT
Nautical Twilight 6:44 AM CDT 7:32 PM CDT
Astronomical Twilight 6:16 AM CDT 7:59 PM CDT
Moon 1:19 PM CDT (11/1) No Moon Set
Length of Visible Light 11h 51m
Length of Day
11h 02m
Waxing Crescent, 40% of the Moon is Illuminated
Nov 1
Waxing Crescent
Nov 2
First Quarter
Nov 10
Full
Nov 18
Last Quarter
Nov 25
New

Hourly Weather History & Observations

Time (CDT) Temp. Dew Point Humidity Pressure Visibility Wind Dir Wind Speed Gust Speed Precip Events Conditions
12:53 AM 57.9 °F 55.0 °F 90% 30.16 in 10.0 mi ESE 4.6 mph - N/A   Clear
1:53 AM 55.9 °F 54.0 °F 93% 30.15 in 10.0 mi East 5.8 mph - N/A   Clear
2:53 AM 55.4 °F 53.6 °F 94% 30.14 in 10.0 mi ENE 3.5 mph - N/A   Clear
3:53 AM 52.0 °F 50.0 °F 93% 30.14 in 10.0 mi ENE 3.5 mph - N/A   Clear
4:53 AM 51.1 °F 48.9 °F 92% 30.12 in 10.0 mi NE 4.6 mph - N/A   Clear
5:53 AM 51.1 °F 50.0 °F 96% 30.12 in 10.0 mi ENE 5.8 mph - N/A   Clear
6:53 AM 51.1 °F 50.0 °F 96% 30.13 in 10.0 mi NE 5.8 mph - N/A   Clear
7:53 AM 51.8 °F 50.0 °F 94% 30.14 in 10.0 mi NE 5.8 mph - N/A   Clear
8:53 AM 59.0 °F 55.9 °F 90% 30.15 in 10.0 mi ENE 3.5 mph - N/A   Clear
9:53 AM 70.0 °F 62.1 °F 76% 30.16 in 10.0 mi East 4.6 mph - N/A   Clear
10:53 AM 75.0 °F 61.0 °F 62% 30.15 in 10.0 mi SE 12.7 mph 18.4 mph 0.01 in   Scattered Clouds
11:53 AM 77.0 °F 61.0 °F 58% 30.14 in 10.0 mi SSE 13.8 mph - N/A   Partly Cloudy
12:53 PM 78.1 °F 62.1 °F 58% 30.12 in 10.0 mi SSE 11.5 mph - N/A   Partly Cloudy
1:53 PM 78.1 °F 62.1 °F 58% 30.09 in 10.0 mi SE 13.8 mph - N/A   Clear
2:53 PM 78.1 °F 61.0 °F 56% 30.08 in 10.0 mi SE 10.4 mph - N/A   Clear
3:53 PM 78.1 °F 61.0 °F 56% 30.07 in 10.0 mi SE 17.3 mph - N/A   Clear
4:53 PM 77.0 °F 61.0 °F 58% 30.07 in 10.0 mi SSE 12.7 mph - N/A   Partly Cloudy
5:53 PM 73.4 °F 60.8 °F 65% 30.07 in 10.0 mi SE 10.4 mph - N/A   Clear
6:53 PM 71.1 °F 61.0 °F 70% 30.07 in 10.0 mi SE 6.9 mph - N/A   Clear
7:53 PM 69.1 °F 62.1 °F 78% 30.07 in 10.0 mi ESE 8.1 mph - N/A   Clear
8:53 PM 66.0 °F 62.1 °F 87% 30.08 in 10.0 mi ESE 6.9 mph - N/A   Clear
10:53 PM 68.0 °F 63.0 °F 84% 30.07 in 10.0 mi ESE 9.2 mph - N/A   Clear